Location: Unspecified
(0.0000°N, 0.0000°E)
Time: 19:32:09
(UTC+00:00)

Amateur Radio Satellites - All Passes

Search period start: 30 June 2016 19:02
Search period end: 01 July 2016 19:02
Location: Unspecified, 0.0000°N, 0.0000°E

Satellite Date Start Highest point End Downlink Frequencies (MHz)
Time Altitude Azimuth
CINEMA 3 30 Jun 19:04:52 19:08:27 26° 79° (E) 19:11:55 145.822/145.860
Cubesat XI-IV 30 Jun 19:05:44 19:08:58 16° 257° (WSW) 19:12:12 437.490
GOMX 1 30 Jun 19:12:30 19:15:53 18° 256° (WSW) 19:19:07 467.674
COMPASS 1 30 Jun 19:17:52 19:20:01 14° 78° (ENE) 19:22:10 437.405
NOAA 18 30 Jun 19:19:07 19:20:23 11° 256° (WSW) 19:21:38 137.9125
DANDE 30 Jun 19:21:52 19:24:17 24° 267° (W) 19:26:30 436.750
CANX-2 30 Jun 19:22:21 19:26:29 49° 79° (ENE) 19:30:36 2200.000
HO-68 30 Jun 19:27:30 19:34:31 60° 76° (ENE) 19:41:31 435.675
AO-85 30 Jun 19:34:04 19:38:49 33° 292° (WNW) 19:43:40 145.980
RS-15 30 Jun 19:39:29 19:45:36 15° 66° (ENE) 19:51:35 29.354- 29.394
CUTE 1.7 + AOD 2 30 Jun 19:41:47 19:46:03 83° 81° (E) 19:50:18 437.475
SEEDS 30 Jun 19:42:00 19:46:08 52° 78° (ENE) 19:50:14 437.485
PRISM 30 Jun 19:45:13 19:48:50 32° 102° (ESE) 19:52:28 437.425
STRAND 1 30 Jun 19:50:12 19:53:57 21° 283° (WNW) 19:57:44 437.568
AAUSAT CUBESAT 2 30 Jun 20:14:54 20:19:05 77° 78° (ENE) 20:23:15 437.432
SRMSAT 30 Jun 20:21:03 20:24:55 18° 14° (NNE) 20:28:47 437.500
CUBEBUG 2 30 Jun 20:23:37 20:27:47 79° 77° (ENE) 20:31:53 437.445
M-CUBED/EXP-1 PRIME 30 Jun 20:24:42 20:28:03 43° 75° (ENE) 20:31:13 437.505
ZACube-1 30 Jun 20:40:29 20:44:27 45° 79° (ENE) 20:48:26 437.345
CINEMA 3 30 Jun 20:44:03 20:45:18 11° 257° (WSW) 20:46:31 145.822/145.860
Oscar 11 30 Jun 20:45:45 20:50:01 63° 78° (ENE) 20:54:17 145.826/435.025
JUGNU 30 Jun 20:50:19 20:56:14 70° 21° (NNE) 21:02:08 437.505
COMPASS 1 30 Jun 20:52:02 20:55:18 22° 258° (WSW) 20:58:35 437.405
FUNcube-1 30 Jun 20:56:39 21:00:47 76° 78° (ENE) 21:04:55 145.935
UWE-3 30 Jun 21:06:37 21:10:28 38° 258° (WSW) 21:14:19 435.000/436.395/437.385
TIGRISAT 30 Jun 21:08:30 21:11:16 16° 102° (ESE) 21:14:01 435.000
UNISAT 6 30 Jun 21:13:43 21:17:08 20° 102° (ESE) 21:20:33 437.425
AUBIESAT-1 30 Jun 21:18:07 21:21:04 26° 254° (WSW) 21:23:55 437.475
HO-68 30 Jun 21:18:32 21:21:52 14° 255° (WSW) 21:25:12 435.675
HUMSAT D 30 Jun 21:34:21 21:38:12 39° 78° (ENE) 21:42:04 437.325/437.525
DELFI C3 30 Jun 21:43:34 21:47:26 46° 259° (WSW) 21:51:18 145.870
RS-15 30 Jun 21:45:47 21:58:03 84° 250° (WSW) 22:09:49 29.354- 29.394
ANTELSAT 30 Jun 21:52:08 21:56:49 68° 102° (ESE) 22:01:28 437.575/2403.000
ESTCUBE 1 30 Jun 22:03:40 22:04:46 11° 78° (ENE) 22:05:53 437.505/2401.250
SRMSAT 30 Jun 22:08:57 22:14:29 41° 20° (NNE) 22:20:01 437.500
YUBILEINY 30 Jun 22:09:39 22:13:02 13° 87° (E) 22:16:25 435.215
NANOSAT C BR1 30 Jun 22:33:25 22:36:44 22° 102° (ESE) 22:40:03 145.865
QB50P1 30 Jun 22:37:26 22:41:03 27° 102° (ESE) 22:44:41 145.935-145.965
CUBEBUG 1 30 Jun 22:37:30 22:40:44 20° 78° (ENE) 22:43:56 437.445
JUGNU 30 Jun 22:39:43 22:45:18 42° 200° (SSW) 22:50:52 437.505
POPSAT HIP 1 30 Jun 22:40:45 22:44:29 30° 102° (ESE) 22:48:15 437.405
TIGRISAT 30 Jun 22:43:47 22:47:40 26° 282° (WNW) 22:51:33 435.000
Cosmos 2491 30 Jun 22:48:19 22:56:13 37° 93° (E) 23:04:01 435.465 / 435.565
UNISAT 6 30 Jun 22:50:08 22:53:34 20° 282° (WNW) 22:57:00 437.425
VELOX 1 30 Jun 22:51:03 22:54:50 28° 78° (ENE) 22:58:36 145.980
DUCHIFAT 1 30 Jun 22:52:12 22:56:09 38° 102° (ESE) 23:00:07 145.980
QB50P2 30 Jun 22:53:15 22:57:24 51° 102° (ESE) 23:01:34 145.880/145.840
POLYITAN 1 30 Jun 22:55:52 23:00:02 52° 102° (ESE) 23:04:14 437.675
BEESAT 3 30 Jun 23:10:41 23:13:34 20° 112° (ESE) 23:16:26 437.485
PCSat 30 Jun 23:14:19 23:19:19 38° 109° (ESE) 23:24:18 145.827
SPROUT 30 Jun 23:17:14 23:20:29 21° 78° (ENE) 23:23:44 437.525
UKube-1 30 Jun 23:19:25 23:23:26 37° 78° (ENE) 23:27:24 .
50 SAT 30 Jun 23:21:55 23:25:36 80° 258° (WSW) 23:29:18 437.505
AISAT 30 Jun 23:31:31 23:35:56 69° 258° (WSW) 23:40:19 437.250
ESTCUBE 1 30 Jun 23:37:13 23:41:18 33° 258° (WSW) 23:45:23 437.505/2401.250
BUGSAT 1 30 Jun 23:38:14 23:42:24 67° 103° (ESE) 23:46:36 437.445
DX 1 30 Jun 23:43:21 23:47:42 69° 258° (WSW) 23:52:01 434.975-435.025
Cosmos 2504 30 Jun 23:45:02 23:50:25 19° 85° (E) 23:55:35 435.465 / 435.565
BEESAT 2 30 Jun 23:52:24 23:56:03 36° 111° (ESE) 23:59:40 435.950
SRMSAT 30 Jun 23:57:49 00:03:43 73° 201° (SSW) 00:09:37 437.500
YUBILEINY 01 Jul 00:00:40 00:09:26 71° 267° (W) 00:18:14 435.215
RS-15 01 Jul 00:07:39 00:10:17 11° 247° (WSW) 00:12:53 29.354- 29.394
NANOSAT C BR1 01 Jul 00:09:51 00:12:11 14° 282° (WNW) 00:14:32 145.865
CUBEBUG 1 01 Jul 00:13:53 00:16:45 17° 258° (WSW) 00:19:36 437.445
QB50P1 01 Jul 00:15:02 00:16:33 12° 282° (WNW) 00:18:05 145.935-145.965
POPSAT HIP 1 01 Jul 00:19:05 00:20:00 11° 282° (WNW) 00:20:56 437.405
TISAT 1 01 Jul 00:28:16 00:32:09 38° 78° (ENE) 00:36:00 437.305
O/OREOS (USA 219) 01 Jul 00:28:21 00:32:51 61° 105° (ESE) 00:37:18 437.305
VELOX 1 01 Jul 00:29:10 00:31:01 12° 257° (WSW) 00:32:52 145.980
JUGNU 01 Jul 00:30:46 00:34:41 18° 195° (SSW) 00:38:36 437.505
PHONESAT 2.4 01 Jul 00:34:51 00:36:49 16° 138° (SE) 00:38:47 2401.200-2431.200
SO-50 01 Jul 00:36:46 00:40:37 29° 68° (ENE) 00:44:25 436.795
Cosmos 2491 01 Jul 00:45:28 00:52:38 28° 273° (W) 00:59:48 435.465 / 435.565
JAS-2 01 Jul 00:45:33 00:50:29 48° 282° (WNW) 00:55:37 435.910
BEESAT 3 01 Jul 00:49:06 00:50:58 13° 292° (WNW) 00:52:52 437.485
SPROUT 01 Jul 00:53:48 00:56:10 15° 258° (WSW) 00:58:32 437.525
ITUPSAT 1 01 Jul 00:57:06 00:57:33 10° 77° (ENE) 00:58:00 437.325
PCSat 01 Jul 00:59:49 01:02:27 14° 290° (WNW) 01:05:05 145.827
Oscar 19 01 Jul 01:31:03 01:35:56 47° 282° (WNW) 01:40:53 437.125/150
Cosmos 2504 01 Jul 01:35:31 01:43:33 50° 268° (W) 01:51:05 435.465 / 435.565
SRMSAT 01 Jul 01:48:05 01:53:02 27° 198° (SSW) 01:58:02 437.500
ITAMSAT 1 01 Jul 01:59:15 02:03:51 32° 103° (ESE) 02:08:27 435.822/435.867
SWISSCUBE 01 Jul 02:02:39 02:07:26 79° 259° (W) 02:12:13 437.505
Gurwin Techsat 1B 01 Jul 02:07:12 02:12:20 52° 283° (WNW) 02:17:30 435.225
PHONESAT 2.4 01 Jul 02:10:53 02:13:17 21° 317° (NW) 02:15:41 2401.200-2431.200
SO-50 01 Jul 02:19:11 02:20:48 12° 248° (WSW) 02:22:26 436.795
JUGNU 01 Jul 02:24:00 02:24:37 10° 185° (S) 02:25:14 437.505
BEESAT 01 Jul 02:27:56 02:32:25 41° 258° (WSW) 02:36:54 436.000
ITUPSAT 1 01 Jul 02:30:38 02:35:06 39° 258° (WSW) 02:39:33 437.325
AIST 2 01 Jul 02:32:02 02:36:02 52° 292° (WNW) 02:40:01 435.215
KKS-1 01 Jul 02:38:46 02:41:31 16° 78° (ENE) 02:44:16 437.445
MOZHAYETS 4 01 Jul 02:46:20 02:49:36 19° 78° (ENE) 02:52:51
AO-7 01 Jul 02:59:52 03:07:59 56° 106° (ESE) 03:16:04 29.400- 29.500
STARS 01 Jul 03:04:26 03:06:54 15° 78° (ENE) 03:09:20 437.465
AIST 1 01 Jul 03:30:13 03:34:19 46° 86° (E) 03:38:27
ISS 01 Jul 03:37:03 03:38:24 12° 126° (SE) 03:39:47 145.825
SRMSAT 01 Jul 03:40:06 03:42:51 13° 190° (S) 03:45:38 437.500
ITAMSAT 1 01 Jul 03:40:06 03:43:02 15° 283° (WNW) 03:45:59 435.822/435.867
GONETS M04 01 Jul 04:05:06 04:11:02 20° 87° (E) 04:16:57
JUGNU 01 Jul 04:13:58 04:14:50 10° 174° (S) 04:15:40 437.505
KKS-1 01 Jul 04:14:26 04:17:49 21° 258° (WSW) 04:21:12 437.445
HORYU 2 01 Jul 04:15:01 04:19:20 48° 102° (ESE) 04:23:39 437.375
Cosmos 2499 01 Jul 04:17:27 04:19:04 11° 85° (E) 04:20:41 435.465 / 435.565
CUBESAT XI-V 01 Jul 04:20:13 04:23:59 24° 78° (ENE) 04:27:43 437.345
MOZHAYETS 4 01 Jul 04:23:09 04:26:29 20° 258° (WSW) 04:29:49
STARS 01 Jul 04:39:33 04:42:59 23° 258° (WSW) 04:46:24 437.465
NOAA 18 01 Jul 04:43:09 04:44:05 10° 104° (ESE) 04:45:01 137.9125
AO-7 01 Jul 04:55:00 05:00:20 19° 287° (WNW) 05:05:42 29.400- 29.500
CUTE-I 01 Jul 04:59:19 05:02:24 16° 103° (ESE) 05:05:29 437.470
ISS 01 Jul 05:12:14 05:14:39 19° 305° (NW) 05:17:05 145.825
NOAA 15 01 Jul 05:17:11 05:22:04 40° 103° (ESE) 05:26:57 137.62
CUSAT 1 01 Jul 05:31:11 05:38:43 45° 95° (E) 05:46:00 437.405
BRITE-PL 01 Jul 05:35:51 05:40:10 69° 102° (ESE) 05:44:49 437.365/2234.400
LilacSat-2 01 Jul 05:41:57 05:45:43 50° 101° (E) 05:49:29 437.200
GOMX 1 01 Jul 05:56:12 06:00:35 47° 102° (ESE) 06:05:20 467.674
CUBESAT XI-V 01 Jul 05:58:02 06:01:04 17° 258° (WSW) 06:04:07 437.345
GONETS M04 01 Jul 05:59:04 06:07:25 50° 267° (W) 06:15:53
JUGNU 01 Jul 06:00:45 06:04:44 19° 165° (SSE) 06:08:43 437.505
Cubesat XI-IV 01 Jul 06:03:19 06:08:41 86° 283° (WNW) 06:14:03 437.490
Cosmos 2499 01 Jul 06:03:58 06:12:05 71° 267° (W) 06:19:36 435.465 / 435.565
AO-85 01 Jul 06:08:47 06:11:44 20° 67° (ENE) 06:14:37 145.980
DANDE 01 Jul 06:17:14 06:24:44 50° 94° (E) 06:32:46 436.750
NOAA 18 01 Jul 06:19:03 06:24:25 52° 283° (WNW) 06:29:48 137.9125
CUTE-I 01 Jul 06:37:23 06:42:09 34° 283° (WNW) 06:46:56 437.470
STRAND 1 01 Jul 06:42:38 06:47:40 59° 77° (ENE) 06:52:43 437.568
DOVE 4 01 Jul 06:43:02 06:47:46 76° 102° (ESE) 06:52:50 437.250
NOAA 15 01 Jul 06:59:31 07:01:33 12° 283° (WNW) 07:03:36 137.62
CUSAT 1 01 Jul 07:14:18 07:20:26 24° 274° (W) 07:26:26 437.405
HO-68 01 Jul 07:19:09 07:26:03 50° 105° (ESE) 07:32:57 435.675
CINEMA 3 01 Jul 07:19:37 07:24:21 50° 102° (ESE) 07:29:12 145.822/145.860
SRMSAT 01 Jul 07:20:37 07:23:31 14° 169° (S) 07:26:23 437.500
COMPASS 1 01 Jul 07:21:46 07:24:14 16° 102° (ESE) 07:26:42 437.405
CANX-2 01 Jul 07:28:47 07:32:59 63° 102° (ESE) 07:37:09 2200.000
UWE-3 01 Jul 07:43:12 07:45:28 13° 102° (ESE) 07:47:43 435.000/436.395/437.385
AUBIESAT-1 01 Jul 07:44:40 07:45:42 11° 107° (ESE) 07:46:45 437.475
SEEDS 01 Jul 07:47:18 07:51:25 63° 101° (E) 07:55:33 437.485
PRISM 01 Jul 07:47:55 07:51:45 36° 78° (ENE) 07:55:34 437.425
CUTE 1.7 + AOD 2 01 Jul 07:48:12 07:52:25 79° 282° (WNW) 07:56:39 437.475
JUGNU 01 Jul 07:48:30 07:54:05 44° 160° (SSE) 07:59:42 437.505
AO-85 01 Jul 07:50:32 07:51:51 11° 248° (WSW) 07:53:09 145.980
DANDE 01 Jul 08:01:29 08:07:21 23° 276° (W) 08:13:30 436.750
AAUSAT CUBESAT 2 01 Jul 08:18:36 08:22:43 87° 101° (E) 08:26:50 437.432
M-CUBED/EXP-1 PRIME 01 Jul 08:22:53 08:27:11 50° 106° (ESE) 08:31:43 437.505
CUBEBUG 2 01 Jul 08:35:23 08:40:06 69° 282° (WNW) 08:44:50 437.445
ZACube-1 01 Jul 08:49:48 08:54:22 68° 102° (ESE) 08:58:53 437.345
Oscar 11 01 Jul 08:54:22 08:58:42 85° 99° (E) 09:03:02 145.826/435.025
COMPASS 1 01 Jul 08:56:36 08:59:31 19° 282° (WNW) 09:02:28 437.405
FUNcube-1 01 Jul 09:05:48 09:10:22 78° 281° (W) 09:14:54 145.935
SRMSAT 01 Jul 09:08:16 09:13:20 28° 162° (SSE) 09:18:25 437.500
HO-68 01 Jul 09:09:02 09:13:25 17° 285° (WNW) 09:17:49 435.675
AUBIESAT-1 01 Jul 09:15:42 09:19:48 38° 285° (WNW) 09:24:03 437.475
UWE-3 01 Jul 09:17:35 09:21:38 30° 282° (WNW) 09:25:41 435.000/436.395/437.385
TIGRISAT 01 Jul 09:21:08 09:24:17 20° 78° (ENE) 09:27:26 435.000
UNISAT 6 01 Jul 09:26:46 09:30:22 27° 78° (ENE) 09:33:58 437.425
RS-15 01 Jul 09:28:04 09:39:01 83° 110° (ESE) 09:50:26 29.354- 29.394
JUGNU 01 Jul 09:37:16 09:43:08 67° 339° (NNW) 09:49:03 437.505
HUMSAT D 01 Jul 09:38:58 09:43:05 48° 101° (ESE) 09:47:10 437.325/437.525
DELFI C3 01 Jul 09:42:30 09:46:17 48° 281° (WNW) 09:50:05 145.870
ANTELSAT 01 Jul 10:05:46 10:10:01 78° 258° (WSW) 10:14:17 437.575/2403.000
ESTCUBE 1 01 Jul 10:15:57 10:18:49 17° 102° (ESE) 10:21:39 437.505/2401.250
NANOSAT C BR1 01 Jul 10:39:08 10:42:37 26° 78° (ENE) 10:46:05 145.865
YUBILEINY 01 Jul 10:39:27 10:46:34 28° 93° (E) 10:53:37 435.215
QB50P1 01 Jul 10:43:32 10:47:17 32° 79° (ENE) 10:51:02 145.935-145.965
POPSAT HIP 1 01 Jul 10:46:56 10:50:47 35° 78° (ENE) 10:54:36 437.405
CUBEBUG 1 01 Jul 10:46:59 10:50:40 27° 102° (ESE) 10:54:22 437.445
SRMSAT 01 Jul 10:56:41 11:02:42 74° 159° (SSE) 11:08:42 437.500
DUCHIFAT 1 01 Jul 10:57:46 11:01:46 46° 78° (ENE) 11:05:45 145.980
TIGRISAT 01 Jul 10:58:15 11:00:43 15° 258° (WSW) 11:03:11 435.000
QB50P2 01 Jul 10:59:40 11:03:51 63° 78° (ENE) 11:07:59 145.880/145.840
VELOX 1 01 Jul 11:02:13 11:06:20 40° 102° (ESE) 11:10:29 145.980
POLYITAN 1 01 Jul 11:02:19 11:06:28 65° 79° (ENE) 11:10:37 437.675
BEESAT 3 01 Jul 11:03:02 11:06:00 20° 68° (ENE) 11:08:58 437.485
UNISAT 6 01 Jul 11:05:26 11:06:50 11° 258° (WSW) 11:08:11 437.425
50 SAT 01 Jul 11:11:59 11:15:35 67° 101° (ESE) 11:19:11 437.505
Cosmos 2491 01 Jul 11:21:06 11:29:46 71° 87° (E) 11:38:30 435.465 / 435.565
SPROUT 01 Jul 11:24:08 11:27:48 27° 102° (ESE) 11:31:29 437.525
JUGNU 01 Jul 11:27:30 11:32:21 26° 342° (NNW) 11:37:15 437.505
UKube-1 01 Jul 11:27:42 11:31:51 50° 102° (ESE) 11:36:02 .
BUGSAT 1 01 Jul 11:41:40 11:45:44 75° 78° (ENE) 11:49:44 437.445
AISAT 01 Jul 11:43:16 11:47:29 46° 282° (WNW) 11:51:45 437.250
BEESAT 2 01 Jul 11:45:54 11:49:37 39° 68° (ENE) 11:53:19 435.950
RS-15 01 Jul 11:46:21 11:51:21 14° 295° (WNW) 11:56:31 29.354- 29.394
PCSat 01 Jul 11:50:06 11:55:27 67° 251° (WSW) 12:00:49 145.827
ESTCUBE 1 01 Jul 11:51:58 11:55:20 21° 282° (WNW) 11:58:44 437.505/2401.250
DX 1 01 Jul 11:53:01 11:57:12 49° 282° (WNW) 12:01:25 434.975-435.025
Cosmos 2504 01 Jul 11:54:48 12:00:39 24° 92° (E) 12:06:46 435.465 / 435.565
JAS-2 01 Jul 12:15:45 12:23:40 84° 77° (ENE) 12:31:18 435.910
NANOSAT C BR1 01 Jul 12:16:43 12:18:04 11° 258° (WSW) 12:19:26 145.865
CUBEBUG 1 01 Jul 12:24:59 12:26:41 12° 282° (WNW) 12:28:24 437.445
Oscar 19 01 Jul 12:26:22 12:30:42 27° 78° (ENE) 12:34:59 437.125/150
TISAT 1 01 Jul 12:33:16 12:37:19 46° 102° (ESE) 12:41:24 437.305
YUBILEINY 01 Jul 12:35:14 12:42:56 36° 273° (W) 12:50:41 435.215
O/OREOS (USA 219) 01 Jul 12:39:11 12:43:40 76° 256° (WSW) 12:48:13 437.305
BEESAT 3 01 Jul 12:41:35 12:43:26 13° 248° (WSW) 12:45:17 437.485
SRMSAT 01 Jul 12:46:20 12:51:57 41° 340° (NNW) 12:57:34 437.500
SO-50 01 Jul 12:48:25 12:53:08 58° 112° (ESE) 12:57:55 436.795
SPROUT 01 Jul 13:01:58 13:03:29 12° 282° (WNW) 13:04:59 437.525
Gurwin Techsat 1B 01 Jul 13:06:40 13:11:12 29° 77° (ENE) 13:15:43 435.225
BEESAT 01 Jul 13:13:23 13:16:45 19° 103° (ESE) 13:20:06 436.000
ITUPSAT 1 01 Jul 13:16:17 13:19:48 20° 103° (ESE) 13:23:18 437.325
JUGNU 01 Jul 13:19:28 13:22:05 13° 350° (N) 13:24:42 437.505
Cosmos 2491 01 Jul 13:23:07 13:26:14 12° 267° (W) 13:29:22 435.465 / 435.565
PHONESAT 2.4 01 Jul 13:38:21 13:41:13 36° 222° (SW) 13:44:06 2401.200-2431.200
Cosmos 2504 01 Jul 13:46:43 13:53:36 37° 274° (W) 14:00:56 435.465 / 435.565
Oscar 19 01 Jul 14:06:16 14:09:44 18° 257° (WSW) 14:13:12 437.125/150
JAS-2 01 Jul 14:06:42 14:08:05 11° 255° (WSW) 14:09:29 435.910
SWISSCUBE 01 Jul 14:24:56 14:29:22 40° 282° (WNW) 14:33:49 437.505
AIST 2 01 Jul 14:30:25 14:34:20 42° 248° (WSW) 14:38:16 435.215
ITAMSAT 1 01 Jul 14:33:38 14:38:51 88° 76° (ENE) 14:44:04 435.822/435.867
SRMSAT 01 Jul 14:37:36 14:41:33 18° 346° (NNW) 14:45:29 437.500
Gurwin Techsat 1B 01 Jul 14:47:20 14:50:52 18° 257° (WSW) 14:54:23 435.225
KKS-1 01 Jul 14:50:17 14:53:53 24° 102° (ESE) 14:57:29 437.445
BEESAT 01 Jul 14:50:39 14:54:16 22° 283° (WNW) 14:57:53 436.000
ITUPSAT 1 01 Jul 14:53:52 14:57:21 20° 283° (WNW) 15:00:52 437.325
MOZHAYETS 4 01 Jul 15:02:14 15:06:17 32° 102° (ESE) 15:10:21
STARS 01 Jul 15:14:19 15:17:40 21° 102° (ESE) 15:21:02 437.465
AO-7 01 Jul 15:26:01 15:34:20 88° 74° (ENE) 15:42:40 29.400- 29.500
AIST 1 01 Jul 15:36:43 15:41:06 69° 93° (E) 15:45:23
Cosmos 2499 01 Jul 16:23:27 16:27:40 15° 92° (E) 16:32:01 435.465 / 435.565
HORYU 2 01 Jul 16:27:24 16:31:49 73° 77° (ENE) 16:36:12 437.375
KKS-1 01 Jul 16:27:41 16:30:11 15° 282° (WNW) 16:32:42 437.445
SRMSAT 01 Jul 16:30:45 16:31:42 10° 355° (N) 16:32:38 437.500
GONETS M04 01 Jul 16:36:47 16:44:51 41° 93° (E) 16:52:49
CUBESAT XI-V 01 Jul 16:37:54 16:42:11 40° 102° (ESE) 16:46:29 437.345
MOZHAYETS 4 01 Jul 16:41:36 16:43:10 12° 282° (WNW) 16:44:45
ISS 01 Jul 16:45:18 16:48:14 32° 234° (SW) 16:51:12 145.825
STARS 01 Jul 16:50:58 16:53:46 17° 282° (WNW) 16:56:34 437.465
JUGNU 01 Jul 16:59:21 17:02:24 14° 11° (N) 17:05:28 437.505
Cubesat XI-IV 01 Jul 17:04:53 17:08:27 18° 77° (ENE) 17:11:59 437.490
NOAA 18 01 Jul 17:23:32 17:28:29 35° 77° (ENE) 17:33:24 137.9125
CUTE-I 01 Jul 17:36:38 17:41:44 45° 77° (ENE) 17:46:48 437.470
LilacSat-2 01 Jul 17:36:45 17:40:18 39° 79° (E) 17:43:49 437.200
NOAA 15 01 Jul 17:54:13 17:59:31 72° 257° (WSW) 18:04:48 137.62
BRITE-PL 01 Jul 18:02:32 18:07:52 52° 258° (WSW) 18:12:51 437.365/2234.400
Cosmos 2499 01 Jul 18:12:40 18:20:14 57° 274° (W) 18:28:23 435.465 / 435.565
CUSAT 1 01 Jul 18:14:09 18:16:41 62° 264° (W) 18:19:23 437.405
AO-85 01 Jul 18:18:58 18:24:05 51° 111° (ESE) 18:29:20 145.980
GOMX 1 01 Jul 18:20:14 18:25:17 81° 257° (WSW) 18:29:58 467.674
SRMSAT 01 Jul 18:20:40 18:22:05 11° 6° (N) 18:23:30 437.500
GONETS M04 01 Jul 18:34:33 18:41:14 25° 273° (W) 18:47:56
Cubesat XI-IV 01 Jul 18:43:42 18:48:14 29° 257° (WSW) 18:52:46 437.490
JUGNU 01 Jul 18:46:53 18:52:03 30° 18° (NNE) 18:57:11 437.505
